QPF
0.00 0.00 0.01 0.03 0.10 0.13 0.06 0.02 0.01 0.01 0.00 0.00 0.00 0.00 0.01 0.03 0.06 0.12 0.12 0.11 0.12 0.16 0.17 0.14 0.12 0.08 0.06 0.06 0.05 0.05 0.06 0.07 0.10 0.12 0.09 0.07 0.07 0.05 0.05 0.05 0.06 0.08 0.10 0.09 0.07 0.09 0.08 0.08 0.07
0.00 0.00 0.02 0.06 0.12 0.08 0.04 0.01 0.01 0.00 0.00 0.00 0.00 0.00 0.01 0.02 0.04 0.07 0.08 0.09 0.09 0.14 0.17 0.13 0.11 0.10 0.08 0.08 0.07 0.06 0.07 0.08 0.11 0.14 0.12 0.10 0.09 0.07 0.06 0.06 0.06 0.07 0.11 0.15 0.15 0.12 0.10 0.08 0.07
0.00 0.01 0.04 0.11 0.09 0.05 0.04 0.01 0.01 0.00 0.00 0.00 0.00 0.00 0.01 0.03 0.04 0.06 0.06 0.07 0.09 0.12 0.14 0.14 0.13 0.12 0.10 0.10 0.07 0.07 0.08 0.09 0.12 0.16 0.18 0.18 0.13 0.10 0.08 0.08 0.07 0.07 0.10 0.16 0.20 0.15 0.10 0.06 0.07
0.02 0.04 0.05 0.07 0.04 0.01 0.01 0.01 0.01 0.01 0.00 0.00 0.00 0.00 0.02 0.03 0.04 0.05 0.05 0.05 0.10 0.12 0.11 0.11 0.12 0.10 0.09 0.09 0.09 0.09 0.09 0.09 0.11 0.16 0.19 0.21 0.19 0.15 0.14 0.14 0.13 0.13 0.14 0.16 0.18 0.13 0.09 0.05 0.06
0.06 0.08 0.10 0.06 0.02 0.01 0.01 0.01 0.01 0.01 0.01 0.01 0.01 0.02 0.03 0.05 0.06 0.06 0.06 0.07 0.11 0.11 0.11 0.10 0.13 0.11 0.12 0.11 0.08 0.07 0.07 0.09 0.09 0.10 0.11 0.14 0.19 0.20 0.21 0.20 0.18 0.18 0.15 0.15 0.13 0.11 0.07 0.05 0.03
0.05 0.09 0.11 0.05 0.02 0.02 0.01 0.00 0.01 0.01 0.00 0.00 0.00 0.03 0.05 0.09 0.07 0.06 0.08 0.12 0.09 0.07 0.08 0.09 0.11 0.09 0.09 0.06 0.04 0.04 0.06 0.08 0.07 0.06 0.08 0.10 0.15 0.21 0.21 0.19 0.18 0.17 0.14 0.14 0.13 0.11 0.07 0.07 0.04
0.06 0.05 0.04 0.02 0.02 0.03 0.01 0.00 0.00 0.00 0.00 0.00 0.01 0.03 0.08 0.07 0.05 0.06 0.11 0.12 0.08 0.05 0.05 0.07 0.10 0.09 0.07 0.06 0.04 0.03 0.04 0.05 0.06 0.06 0.07 0.09 0.13 0.18 0.18 0.14 0.13 0.11 0.10 0.11 0.12 0.13 0.08 0.07 0.05
0.01 0.02 0.02 0.01 0.02 0.03 0.01 0.01 0.00 0.00 0.00 0.00 0.01 0.03 0.05 0.04 0.03 0.04 0.08 0.06 0.04 0.05 0.05 0.06 0.08 0.07 0.07 0.07 0.05 0.04 0.04 0.05 0.07 0.10 0.11 0.10 0.09 0.11 0.14 0.11 0.10 0.09 0.08 0.09 0.11 0.14 0.10 0.08 0.07
0.01 0.03 0.03 0.02 0.02 0.02 0.01 0.01 0.00 0.02 0.01 0.01 0.01 0.02 0.03 0.03 0.03 0.03 0.04 0.04 0.03 0.06 0.07 0.08 0.06 0.06 0.06 0.05 0.04 0.04 0.05 0.07 0.08 0.10 0.15 0.16 0.15 0.11 0.11 0.09 0.09 0.08 0.07 0.09 0.11 0.13 0.11 0.09 0.07
0.01 0.02 0.02 0.01 0.01 0.01 0.00 0.01 0.00 0.02 0.02 0.02 0.01 0.02 0.03 0.03 0.02 0.02 0.03 0.03 0.03 0.04 0.06 0.07 0.06 0.04 0.04 0.03 0.03 0.05 0.07 0.09 0.09 0.08 0.09 0.14 0.16 0.13 0.09 0.12 0.10 0.09 0.12 0.15 0.16 0.14 0.09 0.07 0.06
0.01 0.01 0.01 0.01 0.01 0.01 0.00 0.00 0.00 0.01 0.01 0.01 0.02 0.02 0.02 0.02 0.01 0.02 0.03 0.04 0.03 0.03 0.04 0.05 0.06 0.05 0.03 0.04 0.03 0.04 0.06 0.10 0.09 0.08 0.08 0.12 0.17 0.14 0.11 0.14 0.13 0.16 0.20 0.23 0.22 0.17 0.09 0.07 0.09
0.01 0.00 0.00 0.00 0.01 0.01 0.00 0.00 0.00 0.01 0.01 0.01 0.02 0.03 0.02 0.02 0.02 0.01 0.02 0.03 0.03 0.03 0.03 0.04 0.04 0.05 0.05 0.03 0.03 0.03 0.04 0.07 0.07 0.07 0.08 0.10 0.19 0.20 0.17 0.14 0.16 0.20 0.23 0.24 0.20 0.16 0.10 0.09 0.09
0.01 0.01 0.00 0.00 0.00 0.01 0.01 0.00 0.00 0.01 0.02 0.02 0.02 0.03 0.03 0.02 0.03 0.03 0.03 0.04 0.03 0.03 0.03 0.04 0.04 0.04 0.05 0.04 0.04 0.03 0.03 0.05 0.05 0.05 0.06 0.08 0.14 0.20 0.20 0.17 0.15 0.14 0.18 0.20 0.17 0.12 0.10 0.10 0.10
0.01 0.00 0.00 0.00 0.00 0.01 0.01 0.01 0.01 0.01 0.01 0.01 0.01 0.02 0.03 0.04 0.03 0.02 0.04 0.06 0.02 0.03 0.03 0.04 0.05 0.03 0.03 0.04 0.05 0.04 0.05 0.06 0.05 0.05 0.06 0.06 0.10 0.14 0.16 0.18 0.20 0.18 0.17 0.17 0.14 0.12 0.10 0.09 0.09
0.01 0.01 0.01 0.00 0.00 0.01 0.02 0.03 0.01 0.01 0.01 0.01 0.02 0.02 0.04 0.04 0.02 0.02 0.06 0.10 0.06 0.05 0.04 0.05 0.04 0.04 0.05 0.05 0.05 0.04 0.04 0.05 0.05 0.05 0.07 0.07 0.08 0.13 0.17 0.19 0.22 0.24 0.20 0.17 0.16 0.13 0.10 0.08 0.10
0.02 0.01 0.01 0.01 0.00 0.00 0.01 0.03 0.02 0.01 0.01 0.02 0.03 0.03 0.03 0.02 0.02 0.02 0.05 0.13 0.10 0.05 0.05 0.06 0.05 0.05 0.07 0.09 0.08 0.05 0.06 0.06 0.06 0.07 0.07 0.08 0.06 0.06 0.11 0.17 0.19 0.22 0.19 0.17 0.17 0.14 0.12 0.10 0.10
0.01 0.01 0.01 0.02 0.00 0.00 0.00 0.01 0.01 0.01 0.01 0.01 0.03 0.03 0.01 0.01 0.01 0.01 0.02 0.06 0.06 0.04 0.05 0.06 0.05 0.04 0.05 0.09 0.09 0.07 0.08 0.06 0.06 0.05 0.05 0.05 0.05 0.04 0.07 0.11 0.11 0.12 0.13 0.15 0.14 0.13 0.12 0.10 0.10
0.01 0.01 0.01 0.01 0.00 0.00 0.00 0.00 0.00 0.00 0.00 0.01 0.01 0.02 0.01 0.00 0.01 0.00 0.00 0.01 0.02 0.03 0.05 0.06 0.05 0.05 0.05 0.06 0.06 0.05 0.06 0.05 0.05 0.04 0.05 0.06 0.07 0.06 0.05 0.06 0.09 0.10 0.11 0.13 0.14 0.13 0.12 0.11 0.11
0.01 0.00 0.00 0.00 0.00 0.00 0.00 0.00 0.01 0.00 0.00 0.00 0.01 0.01 0.00 0.00 0.00 0.00 0.00 0.00 0.00 0.01 0.04 0.05 0.06 0.07 0.06 0.05 0.05 0.06 0.06 0.06 0.05 0.05 0.06 0.08 0.07 0.06 0.08 0.07 0.08 0.09 0.10 0.10 0.11 0.11 0.13 0.12 0.12
0.00 0.00 0.00 0.00 0.00 0.00 0.00 0.00 0.00 0.00 0.00 0.00 0.00 0.00 0.00 0.00 0.00 0.00 0.00 0.00 0.00 0.00 0.01 0.03 0.04 0.06 0.06 0.05 0.04 0.06 0.07 0.06 0.06 0.06 0.07 0.07 0.07 0.07 0.08 0.10 0.10 0.09 0.11 0.09 0.09 0.11 0.14 0.12 0.12
0.00 0.00 0.00 0.00 0.01 0.00 0.00 0.02 0.02 0.00 0.00 0.00 0.00 0.00 0.00 0.00 0.00 0.00 0.00 0.00 0.00 0.01 0.01 0.02 0.02 0.04 0.06 0.06 0.04 0.07 0.10 0.08 0.07 0.06 0.07 0.08 0.07 0.08 0.08 0.08 0.09 0.08 0.09 0.11 0.11 0.12 0.15 0.16 0.14
0.01 0.00 0.01 0.00 0.01 0.01 0.01 0.04 0.05 0.01 0.00 0.00 0.00 0.01 0.00 0.01 0.00 0.00 0.01 0.01 0.01 0.01 0.01 0.02 0.02 0.02 0.03 0.05 0.05 0.05 0.06 0.07 0.06 0.06 0.06 0.07 0.06 0.05 0.05 0.07 0.10 0.08 0.08 0.11 0.11 0.13 0.14 0.17 0.16
0.00 0.00 0.00 0.00 0.01 0.01 0.03 0.06 0.09 0.06 0.03 0.01 0.01 0.02 0.01 0.00 0.00 0.01 0.04 0.02 0.00 0.00 0.00 0.01 0.02 0.02 0.03 0.04 0.05 0.07 0.06 0.06 0.05 0.05 0.06 0.06 0.05 0.04 0.04 0.05 0.08 0.09 0.09 0.10 0.10 0.12 0.13 0.15 0.14
0.01 0.01 0.00 0.00 0.01 0.04 0.06 0.06 0.06 0.07 0.04 0.02 0.01 0.01 0.01 0.00 0.00 0.01 0.03 0.02 0.01 0.00 0.00 0.01 0.02 0.02 0.02 0.04 0.04 0.06 0.06 0.06 0.05 0.04 0.06 0.06 0.05 0.05 0.05 0.05 0.06 0.07 0.08 0.09 0.10 0.11 0.12 0.13 0.13
0.01 0.01 0.01 0.01 0.03 0.05 0.04 0.05 0.06 0.03 0.01 0.01 0.01 0.01 0.00 0.00 0.00 0.00 0.01 0.01 0.01 0.02 0.01 0.01 0.01 0.01 0.01 0.03 0.03 0.04 0.04 0.04 0.03 0.02 0.03 0.03 0.03 0.03 0.04 0.06 0.06 0.07 0.07 0.07 0.08 0.08 0.09 0.09 0.12
0.01 0.01 0.03 0.03 0.03 0.03 0.03 0.04 0.04 0.02 0.00 0.00 0.00 0.00 0.00 0.01 0.01 0.00 0.00 0.01 0.02 0.02 0.01 0.01 0.01 0.01 0.01 0.02 0.03 0.04 0.03 0.03 0.02 0.02 0.02 0.01 0.01 0.01 0.02 0.05 0.07 0.07 0.06 0.06 0.07 0.06 0.06 0.08 0.10
0.01 0.01 0.01 0.02 0.02 0.02 0.03 0.02 0.02 0.02 0.00 0.00 0.00 0.00 0.00 0.00 0.01 0.01 0.00 0.01 0.01 0.01 0.01 0.01 0.02 0.02 0.02 0.02 0.02 0.03 0.04 0.03 0.03 0.03 0.02 0.01 0.02 0.01 0.01 0.04 0.08 0.09 0.08 0.08 0.08 0.07 0.07 0.08 0.08
0.00 0.00 0.01 0.01 0.02 0.02 0.04 0.03 0.03 0.03 0.01 0.00 0.00 0.00 0.00 0.00 0.00 0.01 0.00 0.01 0.01 0.01 0.01 0.01 0.02 0.03 0.03 0.02 0.02 0.02 0.03 0.04 0.03 0.02 0.02 0.02 0.02 0.02 0.01 0.02 0.03 0.07 0.09 0.09 0.08 0.07 0.08 0.08 0.08
0.00 0.00 0.00 0.01 0.01 0.03 0.05 0.05 0.02 0.02 0.01 0.00 0.00 0.01 0.01 0.02 0.01 0.00 0.00 0.00 0.01 0.01 0.01 0.01 0.03 0.03 0.03 0.03 0.03 0.03 0.03 0.02 0.02 0.02 0.01 0.02 0.02 0.02 0.02 0.02 0.02 0.03 0.05 0.06 0.05 0.05 0.06 0.06 0.06
0.00 0.00 0.00 0.01 0.02 0.01 0.04 0.05 0.01 0.00 0.00 0.00 0.00 0.01 0.03 0.05 0.03 0.01 0.01 0.01 0.02 0.02 0.02 0.02 0.03 0.03 0.03 0.02 0.02 0.02 0.02 0.02 0.02 0.02 0.01 0.01 0.02 0.02 0.03 0.03 0.03 0.03 0.03 0.03 0.03 0.03 0.04 0.05 0.04
MSLP
1005.06 1005.67 1006.26 1006.68 1006.83 1006.68 1006.25 1005.64 1005.01 1004.51 1004.24 1004.25 1004.53 1004.98 1005.48 1005.92 1006.18 1006.21 1006.04 1005.73 1005.34 1004.97 1004.64 1004.39 1004.15 1003.89 1003.54 1003.06 1002.45 1001.74 1001.00 1000.32 999.79 999.46 999.36 999.47 999.78 1000.22 1000.74 1001.32 1001.93 1002.57 1003.24 1003.97 1004.75 1005.56 1006.40 1007.23 1008.03
1004.95 1005.63 1006.22 1006.59 1006.66 1006.40 1005.89 1005.23 1004.58 1004.10 1003.88 1003.96 1004.29 1004.78 1005.30 1005.73 1005.97 1006.00 1005.84 1005.57 1005.26 1004.99 1004.79 1004.65 1004.54 1004.37 1004.09 1003.65 1003.07 1002.39 1001.68 1001.03 1000.53 1000.23 1000.14 1000.25 1000.52 1000.90 1001.35 1001.83 1002.36 1002.92 1003.55 1004.26 1005.04 1005.89 1006.77 1007.63 1008.46
1004.91 1005.62 1006.19 1006.51 1006.49 1006.14 1005.55 1004.85 1004.19 1003.74 1003.56 1003.68 1004.04 1004.54 1005.03 1005.42 1005.63 1005.63 1005.47 1005.24 1005.02 1004.86 1004.80 1004.81 1004.83 1004.78 1004.60 1004.24 1003.72 1003.08 1002.41 1001.79 1001.31 1001.02 1000.92 1001.00 1001.21 1001.52 1001.88 1002.29 1002.75 1003.27 1003.90 1004.62 1005.45 1006.34 1007.27 1008.19 1009.05
1004.90 1005.61 1006.14 1006.38 1006.28 1005.86 1005.22 1004.50 1003.86 1003.44 1003.30 1003.45 1003.82 1004.29 1004.73 1005.06 1005.20 1005.16 1005.01 1004.81 1004.67 1004.63 1004.72 1004.88 1005.05 1005.14 1005.07 1004.81 1004.37 1003.81 1003.19 1002.62 1002.16 1001.87 1001.75 1001.79 1001.94 1002.17 1002.46 1002.81 1003.23 1003.76 1004.40 1005.17 1006.05 1007.01 1007.99 1008.94 1009.82
1004.82 1005.50 1005.97 1006.14 1005.96 1005.50 1004.85 1004.15 1003.57 1003.21 1003.12 1003.30 1003.66 1004.09 1004.47 1004.72 1004.79 1004.71 1004.54 1004.38 1004.31 1004.39 1004.60 1004.90 1005.21 1005.43 1005.49 1005.35 1005.01 1004.54 1004.00 1003.49 1003.08 1002.81 1002.68 1002.68 1002.78 1002.96 1003.20 1003.52 1003.94 1004.47 1005.16 1005.98 1006.92 1007.92 1008.93 1009.89 1010.74
1004.61 1005.22 1005.60 1005.69 1005.47 1005.01 1004.40 1003.78 1003.29 1003.03 1003.02 1003.24 1003.61 1004.00 1004.32 1004.49 1004.49 1004.36 1004.19 1004.06 1004.05 1004.20 1004.52 1004.93 1005.35 1005.69 1005.86 1005.83 1005.61 1005.24 1004.81 1004.39 1004.05 1003.82 1003.70 1003.70 1003.78 1003.93 1004.16 1004.47 1004.90 1005.47 1006.19 1007.06 1008.03 1009.05 1010.05 1010.96 1011.75
1004.21 1004.70 1004.98 1005.00 1004.77 1004.34 1003.83 1003.34 1003.00 1002.88 1002.99 1003.27 1003.66 1004.03 1004.31 1004.42 1004.37 1004.21 1004.03 1003.92 1003.95 1004.16 1004.54 1005.02 1005.51 1005.92 1006.17 1006.23 1006.12 1005.87 1005.55 1005.24 1004.99 1004.84 1004.78 1004.80 1004.90 1005.07 1005.30 1005.63 1006.09 1006.69 1007.44 1008.33 1009.30 1010.28 1011.22 1012.05 1012.72
1003.63 1003.97 1004.14 1004.10 1003.88 1003.53 1003.15 1002.84 1002.69 1002.74 1002.98 1003.36 1003.79 1004.17 1004.43 1004.51 1004.44 1004.27 1004.09 1004.00 1004.06 1004.30 1004.69 1005.19 1005.70 1006.13 1006.43 1006.55 1006.52 1006.38 1006.18 1005.99 1005.86 1005.80 1005.82 1005.91 1006.06 1006.26 1006.53 1006.90 1007.38 1008.01 1008.77 1009.64 1010.57 1011.48 1012.31 1013.00 1013.53
1002.94 1003.11 1003.16 1003.08 1002.88 1002.63 1002.42 1002.31 1002.35 1002.59 1002.99 1003.47 1003.96 1004.37 1004.63 1004.72 1004.65 1004.50 1004.35 1004.28 1004.36 1004.59 1004.98 1005.45 1005.93 1006.34 1006.64 1006.79 1006.81 1006.75 1006.65 1006.58 1006.56 1006.61 1006.73 1006.91 1007.13 1007.39 1007.71 1008.12 1008.64 1009.27 1010.02 1010.84 1011.69 1012.49 1013.18 1013.71 1014.07
1002.25 1002.27 1002.20 1002.07 1001.91 1001.77 1001.71 1001.79 1002.03 1002.43 1002.97 1003.55 1004.10 1004.55 1004.85 1004.97 1004.95 1004.84 1004.74 1004.70 1004.79 1005.02 1005.37 1005.79 1006.20 1006.56 1006.81 1006.95 1006.99 1006.99 1006.97 1006.99 1007.07 1007.23 1007.45 1007.72 1008.02 1008.35 1008.73 1009.17 1009.71 1010.33 1011.04 1011.79 1012.53 1013.20 1013.74 1014.10 1014.30
1001.72 1001.59 1001.42 1001.25 1001.12 1001.06 1001.13 1001.36 1001.75 1002.29 1002.92 1003.57 1004.18 1004.67 1005.01 1005.18 1005.23 1005.20 1005.16 1005.18 1005.30 1005.52 1005.83 1006.18 1006.51 1006.79 1006.98 1007.08 1007.11 1007.12 1007.15 1007.24 1007.41 1007.64 1007.94 1008.29 1008.66 1009.05 1009.48 1009.96 1010.50 1011.10 1011.75 1012.42 1013.04 1013.58 1013.97 1014.19 1014.25
1001.46 1001.21 1000.96 1000.75 1000.63 1000.63 1000.78 1001.10 1001.57 1002.18 1002.85 1003.54 1004.17 1004.69 1005.07 1005.31 1005.44 1005.50 1005.55 1005.64 1005.80 1006.03 1006.30 1006.59 1006.85 1007.04 1007.16 1007.21 1007.22 1007.23 1007.28 1007.40 1007.60 1007.88 1008.23 1008.63 1009.05 1009.49 1009.95 1010.44 1010.97 1011.53 1012.12 1012.70 1013.22 1013.64 1013.91 1014.03 1014.01
1001.53 1001.20 1000.89 1000.65 1000.52 1000.54 1000.72 1001.06 1001.55 1002.14 1002.80 1003.47 1004.08 1004.61 1005.03 1005.33 1005.55 1005.71 1005.86 1006.03 1006.24 1006.49 1006.75 1007.00 1007.20 1007.33 1007.40 1007.41 1007.39 1007.38 1007.41 1007.53 1007.74 1008.03 1008.39 1008.80 1009.23 1009.69 1010.16 1010.64 1011.15 1011.67 1012.19 1012.69 1013.12 1013.45 1013.65 1013.72 1013.67
1001.95 1001.58 1001.23 1000.97 1000.82 1000.82 1000.97 1001.27 1001.70 1002.23 1002.82 1003.41 1003.97 1004.48 1004.91 1005.27 1005.56 1005.82 1006.07 1006.32 1006.58 1006.86 1007.13 1007.36 1007.54 1007.65 1007.69 1007.68 1007.64 1007.61 1007.63 1007.71 1007.89 1008.15 1008.48 1008.87 1009.28 1009.72 1010.17 1010.63 1011.10 1011.57 1012.03 1012.47 1012.83 1013.12 1013.30 1013.36 1013.34
1002.62 1002.24 1001.89 1001.61 1001.44 1001.40 1001.49 1001.71 1002.04 1002.45 1002.92 1003.40 1003.88 1004.35 1004.77 1005.16 1005.51 1005.85 1006.17 1006.49 1006.81 1007.12 1007.41 1007.66 1007.85 1007.97 1008.02 1008.01 1007.98 1007.95 1007.94 1007.99 1008.12 1008.32 1008.59 1008.91 1009.28 1009.67 1010.08 1010.50 1010.92 1011.35 1011.75 1012.13 1012.46 1012.73 1012.92 1013.04 1013.09
1003.41 1003.06 1002.72 1002.44 1002.26 1002.18 1002.21 1002.33 1002.53 1002.80 1003.12 1003.48 1003.86 1004.26 1004.66 1005.05 1005.44 1005.82 1006.19 1006.56 1006.91 1007.26 1007.57 1007.85 1008.07 1008.23 1008.33 1008.37 1008.37 1008.35 1008.34 1008.35 1008.42 1008.55 1008.74 1008.98 1009.27 1009.60 1009.95 1010.32 1010.69 1011.07 1011.43 1011.77 1012.08 1012.36 1012.60 1012.80 1012.96
1004.17 1003.86 1003.56 1003.32 1003.15 1003.05 1003.02 1003.05 1003.12 1003.25 1003.42 1003.65 1003.92 1004.24 1004.59 1004.98 1005.37 1005.76 1006.15 1006.53 1006.90 1007.25 1007.58 1007.88 1008.15 1008.38 1008.55 1008.66 1008.73 1008.75 1008.75 1008.74 1008.76 1008.81 1008.92 1009.07 1009.28 1009.54 1009.83 1010.14 1010.46 1010.79 1011.11 1011.43 1011.74 1012.05 1012.35 1012.63 1012.92
1004.79 1004.53 1004.31 1004.13 1003.99 1003.90 1003.83 1003.79 1003.75 1003.75 1003.78 1003.87 1004.04 1004.27 1004.57 1004.91 1005.29 1005.67 1006.04 1006.41 1006.75 1007.09 1007.42 1007.75 1008.06 1008.35 1008.61 1008.82 1008.97 1009.05 1009.08 1009.08 1009.07 1009.06 1009.09 1009.17 1009.30 1009.48 1009.71 1009.97 1010.26 1010.54 1010.84 1011.14 1011.45 1011.79 1012.14 1012.52 1012.93
1005.17 1005.00 1004.87 1004.79 1004.73 1004.67 1004.60 1004.50 1004.37 1004.24 1004.15 1004.11 1004.16 1004.31 1004.54 1004.84 1005.18 1005.53 1005.86 1006.18 1006.49 1006.79 1007.10 1007.43 1007.78 1008.13 1008.47 1008.78 1009.02 1009.18 1009.27 1009.29 1009.27 1009.23 1009.20 1009.22 1009.29 1009.42 1009.60 1009.83 1010.07 1010.34 1010.61 1010.90 1011.21 1011.57 1011.97 1012.42 1012.92
1005.33 1005.26 1005.25 1005.29 1005.34 1005.34 1005.28 1005.14 1004.94 1004.70 1004.47 1004.31 1004.25 1004.30 1004.47 1004.71 1005.01 1005.31 1005.61 1005.88 1006.13 1006.38 1006.65 1006.96 1007.32 1007.72 1008.13 1008.52 1008.85 1009.10 1009.26 1009.32 1009.31 1009.26 1009.21 1009.19 1009.23 1009.32 1009.48 1009.68 1009.91 1010.16 1010.42 1010.69 1011.00 1011.36 1011.78 1012.28 1012.83
1005.31 1005.36 1005.50 1005.69 1005.85 1005.94 1005.91 1005.74 1005.45 1005.09 1004.73 1004.44 1004.26 1004.21 1004.30 1004.50 1004.76 1005.03 1005.29 1005.52 1005.72 1005.92 1006.14 1006.42 1006.77 1007.19 1007.64 1008.09 1008.50 1008.82 1009.05 1009.16 1009.19 1009.16 1009.11 1009.08 1009.10 1009.18 1009.32 1009.52 1009.74 1009.98 1010.24 1010.50 1010.80 1011.14 1011.56 1012.05 1012.63
1005.18 1005.38 1005.69 1006.04 1006.34 1006.51 1006.50 1006.30 1005.92 1005.43 1004.93 1004.49 1004.18 1004.04 1004.06 1004.21 1004.46 1004.72 1004.97 1005.18 1005.35 1005.50 1005.68 1005.91 1006.23 1006.63 1007.09 1007.57 1008.03 1008.41 1008.70 1008.87 1008.94 1008.94 1008.91 1008.88 1008.91 1008.99 1009.13 1009.33 1009.55 1009.80 1010.04 1010.29 1010.57 1010.88 1011.26 1011.72 1012.27
1005.04 1005.41 1005.90 1006.41 1006.84 1007.09 1007.10 1006.84 1006.36 1005.73 1005.07 1004.48 1004.04 1003.80 1003.77 1003.91 1004.15 1004.44 1004.71 1004.93 1005.10 1005.23 1005.37 1005.55 1005.82 1006.17 1006.61 1007.08 1007.55 1007.97 1008.30 1008.51 1008.63 1008.66 1008.65 1008.64 1008.67 1008.76 1008.90 1009.10 1009.33 1009.57 1009.81 1010.04 1010.29 1010.56 1010.89 1011.29 1011.78
1004.94 1005.48 1006.15 1006.82 1007.37 1007.68 1007.69 1007.37 1006.78 1006.02 1005.20 1004.46 1003.91 1003.59 1003.51 1003.65 1003.93 1004.27 1004.60 1004.87 1005.05 1005.18 1005.29 1005.42 1005.62 1005.91 1006.29 1006.73 1007.18 1007.60 1007.94 1008.18 1008.32 1008.38 1008.39 1008.39 1008.42 1008.51 1008.65 1008.84 1009.06 1009.29 1009.52 1009.73 1009.94 1010.17 1010.43 1010.76 1011.17
1004.88 1005.59 1006.43 1007.24 1007.89 1008.24 1008.24 1007.86 1007.17 1006.28 1005.33 1004.47 1003.82 1003.44 1003.36 1003.52 1003.86 1004.28 1004.69 1005.03 1005.26 1005.40 1005.49 1005.57 1005.70 1005.90 1006.20 1006.56 1006.96 1007.35 1007.68 1007.93 1008.08 1008.15 1008.17 1008.16 1008.18 1008.24 1008.36 1008.53 1008.73 1008.94 1009.15 1009.34 1009.52 1009.70 1009.91 1010.16 1010.48
1004.85 1005.71 1006.67 1007.59 1008.30 1008.68 1008.67 1008.24 1007.48 1006.50 1005.46 1004.53 1003.83 1003.43 1003.36 1003.57 1003.99 1004.50 1005.00 1005.42 1005.71 1005.87 1005.94 1005.97 1006.02 1006.13 1006.33 1006.60 1006.93 1007.26 1007.56 1007.78 1007.93 1007.99 1007.99 1007.97 1007.96 1007.98 1008.06 1008.18 1008.35 1008.53 1008.72 1008.89 1009.05 1009.19 1009.35 1009.54 1009.78
1004.80 1005.76 1006.80 1007.77 1008.51 1008.91 1008.88 1008.44 1007.64 1006.63 1005.57 1004.63 1003.93 1003.56 1003.54 1003.82 1004.32 1004.92 1005.50 1005.99 1006.33 1006.51 1006.56 1006.54 1006.51 1006.52 1006.61 1006.79 1007.03 1007.29 1007.54 1007.73 1007.85 1007.89 1007.87 1007.81 1007.75 1007.72 1007.74 1007.81 1007.93 1008.08 1008.24 1008.40 1008.54 1008.67 1008.80 1008.95 1009.13
1004.68 1005.68 1006.73 1007.70 1008.43 1008.82 1008.79 1008.36 1007.59 1006.62 1005.61 1004.73 1004.10 1003.80 1003.85 1004.21 1004.78 1005.46 1006.11 1006.65 1007.01 1007.20 1007.23 1007.15 1007.05 1006.97 1006.96 1007.04 1007.19 1007.38 1007.57 1007.72 1007.81 1007.82 1007.77 1007.67 1007.56 1007.48 1007.43 1007.44 1007.51 1007.63 1007.76 1007.91 1008.06 1008.19 1008.31 1008.44 1008.59
1004.49 1005.44 1006.43 1007.34 1008.02 1008.37 1008.35 1007.96 1007.28 1006.42 1005.53 1004.78 1004.28 1004.09 1004.24 1004.67 1005.31 1006.03 1006.71 1007.26 1007.63 1007.80 1007.80 1007.68 1007.51 1007.36 1007.27 1007.26 1007.33 1007.46 1007.60 1007.71 1007.76 1007.75 1007.67 1007.53 1007.38 1007.24 1007.15 1007.11 1007.13 1007.21 1007.34 1007.48 1007.64 1007.79 1007.93 1008.07 1008.20
1004.24 1005.08 1005.94 1006.71 1007.30 1007.60 1007.59 1007.27 1006.71 1006.01 1005.32 1004.75 1004.41 1004.37 1004.62 1005.12 1005.79 1006.52 1007.19 1007.73 1008.07 1008.22 1008.18 1008.02 1007.81 1007.60 1007.45 1007.39 1007.40 1007.47 1007.57 1007.65 1007.68 1007.64 1007.54 1007.39 1007.21 1007.04 1006.91 1006.83 1006.83 1006.89 1007.00 1007.15 1007.33 1007.50 1007.67 1007.82 1007.97
Thickness
5840 5842 5841 5832 5813 5805 5805 5819 5828 5826 5828 5837 5837 5829 5816 5807 5797 5784 5810 5820 5818 5813 5809 5805 5803 5801 5800 5798 5796 5794 5792 5791 5790 5788 5787 5786 5785 5783 5782 5781 5779 5778 5776 5775 5773 5771 5770 5769 5768
5849 5850 5839 5824 5806 5796 5804 5825 5825 5828 5836 5842 5838 5830 5818 5810 5815 5811 5815 5818 5817 5813 5809 5805 5801 5799 5798 5796 5794 5792 5790 5789 5788 5787 5785 5784 5783 5782 5781 5779 5778 5776 5775 5773 5772 5771 5770 5768 5767
5851 5852 5830 5818 5808 5804 5809 5829 5832 5839 5845 5841 5832 5828 5817 5809 5814 5814 5817 5820 5818 5813 5808 5803 5800 5798 5796 5794 5791 5790 5788 5787 5785 5784 5783 5782 5781 5780 5779 5777 5776 5775 5773 5772 5771 5770 5769 5767 5767
5849 5842 5833 5819 5808 5824 5830 5836 5841 5838 5840 5843 5834 5819 5816 5821 5820 5819 5823 5822 5817 5813 5809 5803 5799 5796 5794 5791 5789 5788 5786 5785 5784 5782 5781 5780 5780 5779 5778 5776 5775 5774 5772 5771 5770 5769 5768 5767 5766
5851 5835 5819 5815 5819 5836 5846 5849 5847 5835 5833 5835 5829 5810 5807 5821 5826 5825 5823 5821 5816 5812 5808 5802 5798 5795 5792 5790 5788 5786 5784 5783 5782 5781 5780 5780 5779 5777 5776 5774 5774 5773 5771 5770 5769 5768 5767 5766 5766
5840 5831 5807 5811 5823 5838 5848 5853 5849 5838 5835 5834 5826 5811 5806 5822 5822 5822 5823 5820 5817 5813 5807 5801 5797 5794 5791 5789 5787 5785 5783 5782 5781 5780 5779 5778 5777 5776 5775 5774 5772 5771 5771 5770 5769 5768 5767 5766 5766
5837 5827 5817 5820 5825 5831 5843 5854 5845 5838 5832 5833 5833 5813 5808 5818 5823 5824 5822 5820 5817 5813 5807 5801 5797 5793 5790 5788 5786 5784 5782 5781 5780 5779 5778 5777 5776 5775 5774 5773 5771 5770 5770 5769 5769 5768 5768 5767 5766
5860 5834 5823 5825 5824 5827 5848 5852 5847 5837 5831 5845 5840 5815 5805 5816 5825 5824 5821 5817 5814 5811 5807 5802 5798 5794 5791 5788 5785 5784 5782 5781 5780 5778 5777 5776 5775 5775 5773 5772 5771 5770 5769 5769 5769 5768 5768 5767 5767
5868 5830 5818 5827 5829 5834 5851 5845 5846 5848 5837 5835 5838 5830 5824 5826 5825 5819 5814 5811 5808 5805 5804 5802 5799 5795 5793 5790 5787 5784 5782 5780 5779 5778 5777 5776 5775 5775 5774 5773 5771 5771 5770 5769 5769 5769 5768 5768 5767
5861 5829 5828 5846 5850 5848 5850 5848 5846 5839 5828 5825 5827 5829 5830 5826 5820 5813 5807 5803 5800 5799 5800 5800 5798 5795 5793 5791 5787 5785 5783 5781 5781 5780 5778 5777 5776 5776 5775 5774 5773 5772 5770 5769 5769 5769 5769 5769 5769
5859 5842 5849 5854 5861 5858 5853 5851 5852 5837 5823 5825 5821 5821 5824 5822 5817 5811 5807 5803 5800 5800 5799 5798 5796 5793 5791 5789 5787 5786 5784 5783 5782 5781 5779 5778 5777 5776 5775 5774 5773 5772 5771 5770 5770 5769 5770 5771 5772
5857 5856 5860 5860 5864 5860 5854 5851 5845 5839 5833 5838 5834 5830 5824 5818 5814 5810 5806 5803 5801 5799 5797 5797 5795 5791 5789 5788 5786 5785 5785 5783 5782 5781 5780 5778 5777 5777 5776 5776 5775 5774 5774 5772 5771 5771 5772 5772 5772
5855 5856 5863 5866 5866 5862 5858 5848 5842 5837 5843 5842 5836 5828 5822 5817 5815 5813 5810 5806 5802 5797 5796 5795 5794 5790 5788 5786 5785 5786 5785 5784 5783 5782 5780 5779 5778 5777 5777 5776 5776 5776 5775 5773 5772 5772 5772 5772 5772
5856 5858 5860 5863 5862 5861 5849 5844 5840 5836 5844 5837 5831 5824 5821 5817 5815 5811 5807 5804 5800 5797 5796 5795 5793 5790 5788 5786 5785 5785 5784 5784 5784 5782 5781 5780 5779 5777 5777 5776 5776 5775 5775 5774 5773 5773 5772 5772 5773
5862 5848 5849 5858 5860 5858 5851 5830 5832 5841 5842 5832 5827 5823 5820 5818 5815 5809 5807 5805 5802 5799 5797 5794 5793 5790 5788 5786 5786 5786 5786 5785 5784 5782 5781 5779 5779 5777 5776 5776 5776 5775 5775 5773 5772 5772 5772 5772 5772
5847 5835 5828 5851 5861 5861 5843 5813 5832 5845 5838 5828 5826 5822 5818 5816 5814 5811 5810 5807 5804 5800 5797 5795 5795 5790 5788 5786 5785 5786 5786 5785 5783 5782 5780 5779 5778 5778 5777 5776 5776 5776 5775 5773 5772 5771 5770 5769 5770
5830 5823 5828 5843 5863 5861 5844 5822 5836 5847 5838 5828 5825 5822 5818 5814 5813 5812 5811 5808 5804 5801 5797 5794 5793 5790 5788 5786 5785 5785 5785 5784 5783 5781 5780 5778 5778 5777 5777 5776 5776 5776 5774 5772 5771 5769 5769 5767 5767
5817 5829 5834 5840 5858 5857 5841 5832 5838 5845 5840 5831 5826 5822 5818 5813 5812 5813 5811 5808 5805 5801 5798 5795 5792 5790 5789 5787 5786 5785 5784 5783 5782 5780 5779 5777 5777 5776 5776 5776 5775 5775 5773 5771 5770 5768 5768 5767 5766
5837 5834 5834 5844 5861 5852 5838 5834 5836 5842 5839 5831 5826 5822 5817 5815 5816 5815 5812 5808 5805 5801 5797 5793 5791 5789 5787 5784 5782 5780 5779 5780 5780 5779 5777 5776 5776 5775 5775 5774 5774 5773 5772 5770 5769 5767 5765 5765 5766
5841 5833 5835 5845 5859 5851 5839 5835 5840 5842 5838 5835 5830 5825 5820 5816 5814 5812 5810 5807 5803 5800 5796 5793 5790 5788 5786 5785 5783 5782 5781 5780 5779 5778 5777 5776 5775 5775 5775 5772 5771 5771 5770 5769 5767 5766 5763 5763 5764
5838 5835 5837 5836 5848 5854 5841 5825 5829 5837 5841 5838 5836 5832 5827 5820 5814 5811 5809 5807 5804 5800 5796 5794 5791 5789 5786 5785 5783 5781 5780 5778 5776 5775 5774 5775 5775 5774 5773 5772 5771 5770 5769 5766 5765 5765 5762 5759 5761
5833 5852 5848 5841 5830 5827 5832 5805 5814 5824 5827 5830 5830 5829 5826 5824 5819 5813 5809 5806 5805 5802 5800 5795 5791 5788 5786 5784 5781 5777 5774 5771 5771 5772 5773 5773 5773 5772 5772 5771 5770 5769 5768 5766 5765 5764 5763 5760 5757
5844 5857 5850 5841 5829 5823 5826 5809 5805 5821 5815 5822 5828 5828 5827 5826 5821 5815 5811 5808 5807 5805 5801 5796 5791 5787 5785 5782 5780 5776 5773 5772 5772 5771 5770 5770 5770 5770 5770 5769 5768 5767 5766 5765 5763 5763 5762 5760 5757
5856 5849 5844 5839 5825 5798 5812 5802 5796 5812 5817 5821 5827 5828 5827 5825 5821 5816 5812 5809 5806 5804 5801 5796 5790 5786 5784 5781 5779 5775 5772 5770 5768 5767 5766 5766 5767 5767 5767 5767 5766 5764 5763 5763 5762 5761 5760 5758 5757
5847 5828 5805 5798 5792 5791 5817 5802 5798 5823 5833 5831 5829 5828 5827 5824 5819 5812 5808 5805 5801 5799 5797 5794 5789 5784 5782 5780 5777 5774 5772 5769 5766 5765 5764 5763 5763 5763 5763 5764 5762 5761 5760 5760 5760 5758 5757 5756 5755
5837 5829 5799 5781 5782 5795 5808 5795 5810 5836 5841 5840 5835 5831 5826 5821 5817 5811 5807 5803 5800 5797 5795 5791 5787 5783 5781 5779 5776 5774 5771 5769 5766 5764 5763 5762 5761 5761 5760 5760 5759 5758 5758 5757 5757 5755 5755 5754 5752
5830 5829 5835 5814 5806 5794 5795 5804 5816 5831 5830 5831 5829 5825 5821 5818 5815 5810 5806 5803 5798 5795 5792 5790 5785 5782 5780 5778 5775 5772 5769 5767 5765 5763 5761 5760 5759 5759 5758 5756 5755 5754 5754 5753 5752 5751 5750 5750 5749
5844 5839 5830 5812 5786 5774 5787 5790 5793 5807 5815 5821 5821 5819 5817 5815 5813 5810 5805 5801 5797 5794 5790 5788 5785 5781 5779 5777 5774 5771 5768 5765 5763 5760 5757 5756 5755 5755 5753 5752 5751 5750 5749 5749 5748 5747 5747 5746 5745
5833 5832 5827 5819 5811 5786 5771 5777 5814 5811 5816 5818 5819 5818 5816 5811 5810 5807 5803 5800 5796 5792 5788 5784 5781 5779 5776 5773 5770 5768 5765 5763 5760 5757 5755 5753 5751 5751 5749 5748 5746 5745 5744 5744 5743 5743 5742 5741 5740
5840 5834 5828 5805 5797 5799 5784 5783 5827 5827 5825 5823 5818 5816 5814 5810 5807 5804 5800 5796 5791 5787 5784 5780 5777 5774 5772 5770 5767 5764 5762 5759 5756 5753 5751 5749 5747 5746 5745 5743 5742 5740 5740 5739 5738 5737 5737 5736 5734